Regional Weather Roundup
Issued by NWS Cleveland, OH

Home | Current Version | Previous Version | Text Only | Print | Product List | Glossary Off
Versions: 1 2 3 4 5 6 7 8 9 10 11 12 13 14 15 16 17 18 19 20 21 22 23 24 25 26 27 28 29 30 31 32 33 34 35 36 37 38 39 40 41 42 43 44 45 46 47 48 49 50

000
ASUS41 KCLE 030802
RWRCLE
OHIO REGIONAL WEATHER ROUNDUP
NATIONAL WEATHER SERVICE CLEVELAND, OH
400 AM EDT FRI JUL 03 2015

NOTE: "FAIR" INDICATES FEW OR NO CLOUDS BELOW 12,000 FEET WITH NO
SIGNIFICANT WEATHER AND/OR OBSTRUCTIONS TO VISIBILITY.

OHZ001>008-015>018-024>027-034-035-043-044-030900-
   NORTHWEST OHIO

CITY           SKY/WX    TMP DP  RH WIND       PRES   REMARKS
DEFIANCE       PTCLDY    59  55  87 NE5       29.98F
FINDLAY        CLEAR     60  55  83 E8        29.96F
TOLEDO EXPRESS PTCLDY    57  54  89 N3        29.98F
TOLEDO EXEC    PTCLDY    59  54  83 NE3       29.99F
LIMA           CLEAR     58  53  84 E6        29.96F
$$

OHZ009>014-019>023-028>033-038-089-030900-
   NORTHEAST OHIO

CITY           SKY/WX    TMP DP  RH WIND       PRES   REMARKS
CLE-HOPKINS    PTCLDY    59  51  75 E3        30.00S
CLE-LAKEFRONT  CLEAR     61  52  72 E5        29.98S
CUY CO. ARPT   NOT AVBL
LORAIN-ELYRIA  FOG       55  54  96 CALM      29.99F VSB 1/4
ASHTABULA      CLEAR     50  48  93 CALM      30.01R
AKRON-CANTON   PTCLDY    56  51  84 NE5       29.99R
WOOSTER        PTCLDY    54  52  93 CALM      29.99S
MANSFIELD      MOCLDY    57  54  89 N6        29.99S
YOUNGSTOWN     PTCLDY    52  50  93 CALM      29.98S
$$

OHZ042-051>053-060>062-070>072-077>081-030900-
  SOUTHWEST OHIO

CITY           SKY/WX    TMP DP  RH WIND       PRES   REMARKS
CINC-COVINGTON LGT RAIN  69  65  86 E12       29.89F
CINC-LUNKEN    CLOUDY    67  65  93 CALM      29.89F
HAMILTON       CLOUDY    67  61  81 E9        29.90F
DAYTON         PTCLDY    64  55  72 E7        29.95S
WRIGHT-PAT AFB PTCLDY    63  56  77 NE6       29.93F
DAYTON GENERAL CLOUDY    64  58  80 NE8       29.91F
WILMINGTON     CLOUDY    63  59  87 NE9       29.91F
$$

OHZ036-037-039>041-045>050-054>059-063>069-073>076-082>088-030900-
  CENTRAL AND SOUTHEAST OHIO

CITY           SKY/WX    TMP DP  RH WIND       PRES   REMARKS
COLUMBUS       MOCLDY    62  55  77 NE8       29.93F
OSU AIRPORT    PTCLDY    61  54  77 NE8       29.94F
BOLTON FIELD   NOT AVBL
RICKENBACK AFB NOT AVBL
NEWARK         MOCLDY    61  55  81 CALM      29.95S
MARION         CLEAR     56  53  90 NE6       29.97S
LANCASTER      MOCLDY    62  57  83 NE6       29.94F
ZANESVILLE     NOT AVBL
NEW PHILLY     CLEAR     54  53  97 CALM      29.98S
$$



USA.gov is the U.S. government's official web portal to all federal, state and local government web resources and services.